Regional Weather Roundup
Issued by NWS Grand Forks, ND

Home | Current Version | Previous Version | Graphics & Text | Print | Product List | Glossary On
Versions: 1 2 3 4 5 6 7 8 9 10 11 12 13 14 15 16 17 18 19 20 21 22 23 24 25 26 27 28 29 30 31 32 33 34 35 36 37 38 39 40 41 42 43 44 45 46 47 48 49 50
000
ASUS43 KFGF 250431
RWRFGF
PRAIRIE TO PINES  WEATHER ROUNDUP
NATIONAL WEATHER SERVICE EASTERN NORTH DAKOTA/GRAND FORKS ND
1100 PM CDT SAT JUN 24 2017

 **SATELLITE DATA USED TO AUGMENT SKY COVER AT AUTOMATED STATIONS**
 *****  WEATHER ACROSS EASTERN NORTH DAKOTA  *****

CITY           SKY/WX    TMP DP  RH WIND       PRES   REMARKS
GRAND FORKS    CLOUDY    52  47  83 NW9       30.17S
GRAND FRKS AFB CLOUDY    52  46  80 NW8       30.19R
DEVILS LAKE    MOCLDY    51  45  79 NW8       30.22R
FARGO          CLOUDY    53  44  71 NW14      30.17S
WAHPETON ARPT  CLOUDY    50  43  76 NW14G20   30.19R
$$

 ***** WEATHER ACROSS CENTRAL AND WESTERN NORTH DAKOTA  *****

CITY           SKY/WX    TMP DP  RH WIND       PRES   REMARKS
BISMARCK       FAIR      55  39  54 NW6       30.29R
MINOT          FAIR      52  38  58 W5        30.25R
JAMESTOWN      CLOUDY    51  48  89 NW7       30.22R
MINOT AFB      FAIR      44  39  82 SW5       30.24R
GARRISON         N/A     45  37  73 NW6       30.27R
WILLISTON      FAIR      48  39  71 CALM      30.27R
DICKINSON      FAIR      48  31  51 CALM      30.30R
HETTINGER      FAIR      51  32  48 NE9       30.33R
$$

 *****  OTHER AIRPORT OBSERVATIONS IN OUR AREA  *****

CITY           SKY/WX    TMP DP  RH WIND       PRES   REMARKS
WALHALLA       NOT AVBL
GRAFTON AIRPOR MOCLDY    52  45  76 NW8       30.20S
VALLEY CITY AR CLOUDY    50  43  76 NW10      30.23S
CANDO          NOT AVBL
CAVALIER APRT  NOT AVBL
GWINNER        PTCLDY    52  39  62 NW8       30.22R
SHEYENNE NWR     N/A     52  45  76 N6        29.95S
ROLLA            N/A     43  43 100 W8        30.23S
 ***** THE ABOVE OBSERVATIONS ARE NON NWS ARE NOT QUALITY
       CONTROLLED AND MAY MIS-REPORT RAIN FOR SNOW...
$$

  *****  WEATHER ACROSS NORTHERN MINNESOTA  *****

CITY           SKY/WX    TMP DP  RH WIND       PRES   REMARKS
FLAG ISLAND    CLOUDY    54  48  82 N14       30.08S
WARROAD        LGT RAIN  50  46  87 NW8       30.11S
ROSEAU         LGT RAIN  50  45  81 NW9       30.12S
HALLOCK        LGT RAIN  52  46  82 N12       30.17R
THF RVR FALLS  LGT RAIN  50  48  93 NW17      30.14R
BAUDETTE       CLOUDY    54  52  93 N13G18    30.06R
WASKISH        CLOUDY    55  52  88 N7        30.05R
CROOKSTON      CLOUDY    50  48  93 NW13      30.16S
STEPHEN NDAWN    N/A     52  46  82 NW9         N/A
GREENBUSH NDAW   N/A     52  48  87 NW8         N/A
$$
  *****  WEATHER ACROSS CENTRAL AND WEST MINNESOTA  *****

CITY           SKY/WX    TMP DP  RH WIND       PRES   REMARKS
FOSSTON        DRIZZLE   48  46  93 NW15G21   30.12R
BEMIDJI        CLOUDY    53  52  96 NW10      30.06S
PARK RAPIDS    CLOUDY    52  47  83 NW12      30.08R
ELBOW LAKE     CLOUDY    52  48  88 W16       30.17R
WADENA         CLOUDY    50  46  87 NW16      30.11R
DETROIT LAKES  LGT RAIN  48  46  93 NW16G23   30.14S
MOORHEAD       CLOUDY    50  46  87 NW7       30.18S
FERGUS FALLS   CLOUDY    48  48 100 NW18G24   30.15S FOG
MORRIS MN      CLOUDY    55  46  71 NW14G20   30.15R
STAPLES        CLOUDY    52  48  87 NW10G17   30.10R
$$
  *****  WEATHER ELSEWHERE ACROSS MINNESOTA  *****

CITY           SKY/WX    TMP DP  RH WIND       PRES   REMARKS
DULUTH         MOCLDY    53  49  86 W9        29.99S
INTRNTL FALLS  RAIN      53  52  96 N8        30.03R
ELY            LGT RAIN  54  52  94 NW3       30.00R
CLOQUET        FAIR      54  46  76 W5        30.01S
WHEATON        CLOUDY    54  45  71 NW18G26   30.20R
BRAINERD       CLOUDY    54  49  83 NW8G22    30.07R
HIBBING        CLOUDY    54  49  83 NW5       30.00R
ALEXANDRIA     CLOUDY    53  47  79 NW17G23   30.14R
SAINT CLOUD    CLOUDY    54  51  90 NW14      30.09R
MINNEAPOLIS    FAIR      57  46  66 W7        30.07S
$$

  *****  WEATHER ACROSS SOUTH DAKOTA  *****

CITY           SKY/WX    TMP DP  RH WIND       PRES   REMARKS
SIOUX FALLS    FAIR      56  44  64 N10       30.21R
BROOKINGS      CLOUDY    57  44  62 NW13      30.21R
WATERTOWN      CLOUDY    55  45  68 NW15      30.21R
HURON          FAIR      52  45  77 N5        30.24R
SISSETON         N/A     56  44  64 N16       30.18R
ABERDEEN       CLOUDY    57  43  59 NW13      30.24R
MITCHELL       FAIR      56  43  61 N8        30.24R
PIERRE         FAIR      53  41  63 N7        30.27R
MOBRIDGE       FAIR      50  39  66 N6        30.26R
RAPID CITY     FAIR      56  30  37 N12       30.33R
$$

  *****  SOME WEATHER IN NEARBY STATES *****

CITY           SKY/WX    TMP DP  RH WIND       PRES   REMARKS
GLASGOW MT     FAIR      58  36  43 E6        30.27R
GREAT FALLS MT FAIR      61  38  42 E13       30.33R
CHEYENNE WY    FAIR      57  37  47 E6        30.40R
SCOTTSBLUFF NE FAIR      58  40  51 MISG      30.32R
OMAHA NE       FAIR      64  47  53 N3        30.18R
DES MOINES IA  FAIR      65  43  44 N6        30.14R
DAVENPORT IA   FAIR      58  50  75 N3        30.11R
CHICAGO IL     LGT RAIN  63  47  55 W10       30.06R
EAU CLAIRE WI  FAIR      54  47  77 W7        30.03R
LA CROSSE WI   FAIR      58  50  75 CALM      30.06R
$$

  *****  SOME NATIONAL WEATHER *****

CITY           SKY/WX    TMP DP  RH WIND       PRES   REMARKS
LA GUARDIA NY  FAIR      77  61  57 NW20G28   29.90R
RALEIGH NC     MOCLDY    71  70  96 SW3       30.03R
ATLANTA GA     CLOUDY    74  72  93 CALM      30.09F
NEW ORLEANS LA FAIR      75  74  96 CALM      30.08R
OKLAHOMA CITY  MOCLDY    75  54  47 SE9       30.23R
ALBUQUERQUE NM FAIR      73  47  39 S20G28    30.22R
SALT LAKE CITY FAIR      75  43  31 S5        30.13R
LOS ANGELES CA FAIR      65  62  90 SW9       29.86R
BOISE ID       FAIR      80  36  20 W5        30.08S
SEATTLE WA     FAIR      78  53  41 N10       29.99F
$$

*** WEATHER ACROSS MANITOBA...SASKATCHEWAN AND ONTARIO ***
                ***ONTARIO***

CITY           SKY/WX    TMP DP  RH WIND       PRES   REMARKS
GERALDTON      PTCLDY    55  43  62 NE7       29.95R
THUNDER BAY    PTCLDY    52  50  93 W3        29.94R
SIOUX LOOKOUT  CLOUDY    50  46  87 N7        30.04R
TORONTO        PTCLDY    61  52  72 W7        29.91S
BIG TROUT LK   CLOUDY    43  37  81 CALM      30.05S
PICKLE LAKE    NOT AVBL
DRYDEN         MOCLDY    48  48 100 N7        30.04S
KENORA         CLOUDY    52  46  82 N6        30.08S
$$
                *** MANITOBA***

CITY           SKY/WX    TMP DP  RH WIND       PRES   REMARKS
BRANDON        PTCLDY    43  41  93 NW8       30.22R
DAUPHIN        PTCLDY    50  45  81 NW5       30.21S
ISLAND LAKE    MOCLDY    55  45  67 W6        30.10R
PILOT MOUND      N/A     46  43  87 NW6         N/A
THE PAS        PTCLDY    48  45  87 CALM      30.20R
THOMPSON       PTCLDY    46  37  71 N3        30.12R
WINNIPEG       PTCLDY    45  43  93 NW6       30.17R
LYNN LAKE      PTCLDY    52  39  62 W6        30.17S
CHURCHILL      MOCLDY    54  39  58 SW8       30.00F
GILLAM         PTCLDY    46  36  66 SE3       30.09R
$$
                ***SASKATCHEWAN***

CITY           SKY/WX    TMP DP  RH WIND       PRES   REMARKS
ESTEVAN        MOCLDY    50  45  81 SE6       30.24S
KINDERSLEY     LGT RAIN  57  48  72 W8        30.25S
LLOYDMINSTER   PTCLDY    52  52 100 CALM      30.26S
PRINCE ALBERT  PTCLDY    54  45  71 E6        30.25R
REGINA         PTCLDY    48  45  87 W2        30.25R
YORKTON        CLEAR     48  43  81 N3        30.23R
N. BATTLEFORD  PTCLDY    50  50 100 N5        30.27S
LA RONGE       PTCLDY    50  43  76 CALM      30.24R
SASKATOON      CLOUDY    57  46  67 W7        30.24S
SWIFT CURRENT  CLEAR     50  43  76 E7        30.27S
$$
NOTE: THESE ARE AUTOMATED STATIONS WITH LIMITED QUALITY CONTROL
      "FAIR" INDICATES FEW OR NO CLOUDS BELOW 12,000 FEET WITH NO
      SIGNIFICANT WEATHER AND/OR OBSTRUCTIONS TO VISIBILITY.
      SKY/WX - SKY CONDITION AND SIGNIFICANT WEATHER.
      TMP - AIR TEMPERATURE.    DP   - DEWPOINT TEMPERATURE.
      RH  - RELATIVE HUMIDITY.  PRES - PRESSURE.
      HX  - HEAT INDEX.         WCI  - WIND CHILL INDEX.
$



USA.gov is the U.S. government's official web portal to all federal, state and local government web resources and services.